This is the latest recevied weather packets stored in our database for station/object KG5TTF. If no packets are shown the sender has not sent any weather packets the latest 10 day(s).
| Time | Temp. | Humidity | Pressure | Rain* | Wind** | Luminosity | Snow |
|---|---|---|---|---|---|---|---|
| 1778033362 | -1.11° C | 99% | 1016.5 hPa | 0 mm | - | 0 W/m² | - |
| 1778033060 | -1.11° C | 99% | 1016.5 hPa | 0 mm | - | 0 W/m² | - |
| 1778032757 | -1.11° C | 99% | 1016.4 hPa | 0 mm | - | 1 W/m² | - |
| 1778032454 | -0.56° C | 99% | 1016.4 hPa | 0 mm | - | 1 W/m² | - |
| 1778032151 | -0.56° C | 99% | 1016.4 hPa | 0 mm | - | 2 W/m² | - |
| 1778031848 | -0.56° C | 99% | 1016.5 hPa | 0 mm | - | 3 W/m² | - |
| 1778031545 | -0.56° C | 99% | 1016 hPa | 0 mm | - | 5 W/m² | - |
| 1778031243 | -0.56° C | 99% | 1015.9 hPa | 0 mm | - | 6 W/m² | - |
| 1778030938 | -0.56° C | 99% | 1016 hPa | 0 mm | - | 7 W/m² | - |
| 1778030635 | 0° C | 99% | 1016.1 hPa | 0 mm | - | 11 W/m² | - |
| 1778030332 | 0° C | 99% | 1016.1 hPa | 0 mm | - | 18 W/m² | - |
| 1778030029 | 0° C | 99% | 1016 hPa | 0 mm | - | 19 W/m² | - |
| 1778029726 | 0° C | 99% | 1016 hPa | 0 mm | - | 24 W/m² | - |
| 1778029425 | 0° C | 99% | 1015.9 hPa | 0 mm | - | 28 W/m² | - |
| 1778029121 | 0° C | 99% | 1016 hPa | 0 mm | - | 30 W/m² | - |
| 1778028818 | 0° C | 99% | 1015.8 hPa | 0 mm | - | 22 W/m² | - |
| 1778028514 | 0° C | 99% | 1015.9 hPa | 0 mm | - | 20 W/m² | - |
| 1778028212 | 0° C | 99% | 1015.9 hPa | 0 mm | - | 16 W/m² | - |
| 1778027908 | 0° C | 99% | 1015.8 hPa | 0 mm | - | 17 W/m² | - |
| 1778027604 | 0° C | 99% | 1015.8 hPa | 0 mm | - | 17 W/m² | - |
| 1778027300 | 0° C | 99% | 1015.7 hPa | 0 mm | - | 18 W/m² | - |
| 1778026997 | 0° C | 99% | 1015.8 hPa | 0 mm | - | 24 W/m² | - |
| 1778026693 | 0° C | 99% | 1015.8 hPa | 0 mm | - | 22 W/m² | - |
| 1778026390 | 0° C | 99% | 1015.5 hPa | 0 mm | - | 18 W/m² | - |
| 1778026087 | 0° C | 99% | 1015.3 hPa | 0 mm | - | 11 W/m² | - |
* Rain latest hour (hover to see other rain measurements)
** Current wind speed in m/s (hover to see current wind gust speed)